• In Belarus
  • List of Countries
  • For 7 days
  • Water Temperature
  • Satellite Maps
  • Weather Map
  • Weather Widgets
  • user-avatar
    Login

    Hourly Weather Kobdo

    Today, 23 July, Tuesday

    Time Temperature Precipitation Wind Pressure Humidity
    00:00 +14°C° 0 mm 3 mps 588 mmHg 46%
    01:00 +13°C° 0 mm 3 mps 588 mmHg 48%
    02:00 +13°C° 0 mm 2 mps 587 mmHg 50%
    03:00 +13°C° 0 mm 2 mps 587 mmHg 52%
    04:00 +13°C° 0 mm 2 mps 587 mmHg 52%
    05:00 +14°C° 0 mm 2 mps 588 mmHg 52%
    06:00 +14°C° 0 mm 2 mps 588 mmHg 51%
    07:00 +15°C° 0 mm 2 mps 588 mmHg 45%
    08:00 +17°C° 0 mm 2 mps 589 mmHg 39%
    09:00 +18°C° 0 mm 2 mps 589 mmHg 33%
    10:00 +18°C° 0 mm 2 mps 589 mmHg 35%
    11:00 +18°C° 0 mm 3 mps 589 mmHg 38%
    12:00 +19°C° 0 mm 3 mps 589 mmHg 40%
    13:00 +19°C° 0 mm 3 mps 589 mmHg 38%
    14:00 +20°C° 0 mm 3 mps 589 mmHg 35%
    15:00 +21°C° 0 mm 2 mps 589 mmHg 33%
    16:00 +20°C° 0 mm 3 mps 589 mmHg 34%
    17:00 +20°C° 0 mm 3 mps 589 mmHg 35%
    18:00 +20°C° 0 mm 3 mps 589 mmHg 36%
    19:00 +18°C° 0 mm 3 mps 589 mmHg 43%
    20:00 +16°C° 0 mm 2 mps 588 mmHg 50%
    21:00 +15°C° 0 mm 2 mps 588 mmHg 57%
    22:00 +14°C° 0 mm 2 mps 588 mmHg 57%
    23:00 +14°C° 0 mm 2 mps 587 mmHg 57%

    Tomorrow, 24 July, Wednesday

    Time Temperature Precipitation Wind Pressure Humidity
    00:00 +14°C° 0 mm 2 mps 587 mmHg 57%
    01:00 +13°C° 0 mm 2 mps 587 mmHg 58%
    02:00 +12°C° 0 mm 3 mps 586 mmHg 58%
    03:00 +12°C° 0 mm 3 mps 586 mmHg 58%
    04:00 +12°C° 0 mm 3 mps 586 mmHg 56%
    05:00 +13°C° 0 mm 3 mps 586 mmHg 53%
    06:00 +13°C° 0 mm 3 mps 587 mmHg 51%
    07:00 +16°C° 0 mm 3 mps 587 mmHg 43%
    08:00 +17°C° 0 mm 3 mps 588 mmHg 34%
    09:00 +18°C° 0 mm 3 mps 588 mmHg 26%
    10:00 +19°C° 0 mm 4 mps 588 mmHg 26%
    11:00 +20°C° 0 mm 4 mps 588 mmHg 25%
    12:00 +21°C° 0 mm 4 mps 588 mmHg 25%
    13:00 +20°C° 0 mm 5 mps 588 mmHg 29%
    14:00 +20°C° 0 mm 6 mps 588 mmHg 33%
    15:00 +19°C° 0 mm 6 mps 587 mmHg 37%
    16:00 +17°C° 0 mm 6 mps 587 mmHg 41%
    17:00 +16°C° 0 mm 6 mps 587 mmHg 45%
    18:00 +15°C° 0 mm 6 mps 586 mmHg 49%
    19:00 +14°C° 0 mm 6 mps 586 mmHg 50%
    20:00 +13°C° 0 mm 5 mps 586 mmHg 50%
    21:00 +13°C° 0 mm 5 mps 586 mmHg 51%
    22:00 +12°C° 0 mm 5 mps 586 mmHg 52%
    23:00 +12°C° 0 mm 5 mps 586 mmHg 53%

    Day after tomorrow, 25 July, Thursday

    Time Temperature Precipitation Wind Pressure Humidity
    00:00 +12°C° 0 mm 5 mps 586 mmHg 54%
    01:00 +10°C° 0.1 mm 5 mps 586 mmHg 58%
    02:00 +11°C° 0.1 mm 4 mps 586 mmHg 61%
    03:00 +10°C° 0.1 mm 4 mps 585 mmHg 65%
    04:00 +11°C° 0.1 mm 4 mps 586 mmHg 64%
    05:00 +11°C° 0.1 mm 3 mps 586 mmHg 63%
    06:00 +11°C° 0.1 mm 3 mps 586 mmHg 62%
    07:00 +13°C° 0 mm 2 mps 587 mmHg 57%
    08:00 +14°C° 0 mm 2 mps 587 mmHg 53%
    09:00 +15°C° 0 mm 1 mps 588 mmHg 48%
    10:00 +16°C° 0 mm 1 mps 588 mmHg 45%
    11:00 +18°C° 0 mm 1 mps 588 mmHg 41%
    12:00 +19°C° 0 mm 1 mps 588 mmHg 38%
    13:00 +18°C° 0 mm 2 mps 588 mmHg 38%
    14:00 +18°C° 0 mm 2 mps 588 mmHg 38%
    15:00 +19°C° 0 mm 3 mps 588 mmHg 38%
    16:00 +18°C° 0.2 mm 3 mps 587 mmHg 40%
    17:00 +18°C° 0.2 mm 2 mps 587 mmHg 43%
    18:00 +17°C° 0.2 mm 2 mps 587 mmHg 46%
    19:00 +16°C° 1.1 mm 2 mps 587 mmHg 54%
    20:00 +15°C° 1.1 mm 2 mps 586 mmHg 61%
    21:00 +13°C° 1.1 mm 2 mps 586 mmHg 69%
    22:00 +13°C° 0.7 mm 2 mps 586 mmHg 71%
    23:00 +12°C° 0.7 mm 1 mps 586 mmHg 73%

    26 July, Friday

    Time Temperature Precipitation Wind Pressure Humidity
    00:00 +12°C° 0.7 mm 1 mps 585 mmHg 74%
    01:00 +11°C° 0 mm 1 mps 585 mmHg 75%
    02:00 +11°C° 0 mm 1 mps 585 mmHg 76%
    03:00 +11°C° 0 mm 1 mps 585 mmHg 77%
    04:00 +11°C° 0 mm 1 mps 585 mmHg 73%
    05:00 +11°C° 0 mm 1 mps 585 mmHg 70%
    06:00 +12°C° 0 mm 1 mps 585 mmHg 66%
    07:00 +13°C° 0.3 mm 1 mps 585 mmHg 62%
    08:00 +14°C° 0.3 mm 1 mps 586 mmHg 59%
    09:00 +14°C° 0.3 mm 1 mps 586 mmHg 55%
    10:00 +15°C° 0.7 mm 2 mps 586 mmHg 54%
    11:00 +15°C° 0.7 mm 2 mps 586 mmHg 52%
    12:00 +16°C° 0.7 mm 2 mps 586 mmHg 51%
    13:00 +16°C° 1.4 mm 2 mps 586 mmHg 53%
    14:00 +15°C° 1.4 mm 2 mps 585 mmHg 55%
    15:00 +15°C° 1.4 mm 2 mps 585 mmHg 57%
    16:00 +14°C° 1.9 mm 2 mps 585 mmHg 62%
    17:00 +12°C° 1.9 mm 3 mps 585 mmHg 66%
    18:00 +11°C° 1.9 mm 4 mps 584 mmHg 70%
    19:00 +11°C° 0.9 mm 3 mps 585 mmHg 71%
    20:00 +11°C° 0.9 mm 3 mps 585 mmHg 72%
    21:00 +10°C° 0.9 mm 3 mps 585 mmHg 73%
    22:00 +10°C° 0.2 mm 2 mps 585 mmHg 73%
    23:00 +10°C° 0.2 mm 2 mps 585 mmHg 73%

    27 July, Saturday

    Time Temperature Precipitation Wind Pressure Humidity
    00:00 +10°C° 0.2 mm 2 mps 585 mmHg 73%
    01:00 +10°C° 0 mm 2 mps 585 mmHg 73%
    02:00 +10°C° 0 mm 2 mps 585 mmHg 73%
    03:00 +9°C° 0 mm 2 mps 584 mmHg 73%
    04:00 +10°C° 0 mm 2 mps 585 mmHg 72%
    05:00 +10°C° 0 mm 2 mps 585 mmHg 70%
    06:00 +10°C° 0 mm 2 mps 585 mmHg 68%
    07:00 +12°C° 0 mm 2 mps 585 mmHg 65%
    08:00 +13°C° 0 mm 2 mps 586 mmHg 62%
    09:00 +14°C° 0 mm 2 mps 586 mmHg 59%
    10:00 +14°C° 0.4 mm 2 mps 586 mmHg 55%
    11:00 +15°C° 0.4 mm 2 mps 586 mmHg 51%
    12:00 +16°C° 0.4 mm 2 mps 586 mmHg 48%
    13:00 +17°C° 0.3 mm 2 mps 587 mmHg 45%
    14:00 +17°C° 0.3 mm 2 mps 587 mmHg 42%
    15:00 +18°C° 0.3 mm 3 mps 587 mmHg 40%
    16:00 +18°C° 0.1 mm 2 mps 587 mmHg 40%
    17:00 +17°C° 0.1 mm 2 mps 587 mmHg 40%
    18:00 +18°C° 0.1 mm 1 mps 587 mmHg 41%
    19:00 +16°C° 0.1 mm 2 mps 587 mmHg 46%
    20:00 +15°C° 0.1 mm 2 mps 587 mmHg 51%
    21:00 +14°C° 0.1 mm 2 mps 587 mmHg 56%
    22:00 +13°C° 0.1 mm 2 mps 587 mmHg 59%
    23:00 +12°C° 0.1 mm 2 mps 587 mmHg 62%

    28 July, Sunday

    Time Temperature Precipitation Wind Pressure Humidity
    00:00 +11°C° 0.1 mm 1 mps 587 mmHg 65%
    01:00 +11°C° 0 mm 1 mps 587 mmHg 65%
    02:00 +11°C° 0 mm 1 mps 586 mmHg 64%
    03:00 +9°C° 0 mm 2 mps 586 mmHg 64%
    04:00 +10°C° 0 mm 2 mps 587 mmHg 60%
    05:00 +10°C° 0 mm 2 mps 587 mmHg 57%
    06:00 +10°C° 0 mm 2 mps 587 mmHg 54%
    07:00 +13°C° 0 mm 1 mps 588 mmHg 47%
    08:00 +14°C° 0 mm 1 mps 589 mmHg 40%
    09:00 +15°C° 0 mm 1 mps 589 mmHg 33%
    10:00 +16°C° 0 mm 1 mps 590 mmHg 30%
    11:00 +17°C° 0 mm 2 mps 590 mmHg 27%
    12:00 +18°C° 0 mm 2 mps 590 mmHg 25%
    13:00 +19°C° 0 mm 2 mps 590 mmHg 25%
    14:00 +19°C° 0 mm 3 mps 590 mmHg 26%
    15:00 +19°C° 0 mm 4 mps 590 mmHg 26%
    16:00 +19°C° 0.1 mm 3 mps 590 mmHg 30%
    17:00 +18°C° 0.1 mm 3 mps 590 mmHg 33%
    18:00 +17°C° 0.1 mm 3 mps 589 mmHg 36%
    19:00 +16°C° 0.1 mm 3 mps 589 mmHg 41%
    20:00 +15°C° 0.1 mm 2 mps 589 mmHg 46%
    21:00 +14°C° 0.1 mm 2 mps 590 mmHg 50%
    22:00 +13°C° 0.1 mm 1 mps 589 mmHg 56%
    23:00 +12°C° 0.1 mm 1 mps 589 mmHg 62%
    Show more